Flag for Germany Weather past 2 weeks in Leonberg, Baden-Württemberg, Germany

Now
75 °F

Scattered showers. Broken clouds.


Feels Like: 78 °F
Forecast: 50 / 69 °F
Wind: 18 mph from Southwest

Location: Stuttgart-Echterdingen

Current Time: Sep 1, 2015 at 5:18:36 PM

Latest Report: Sep 1, 2015 at 4:20 PM


Visibility: N/A

Pressure: 29.89 "Hg

Humidity: 57%

Dew point: 59 °F

Location of LeonbergLocation

Historic Weather in Leonberg — Graph

°F

Leonberg temperature yesterday

Maximum temperature yesterday: 91 °F (at 3:50 PM)
Minimum temperature yesterday: 64 °F (at 4:50 AM)
Average temperature yesterday: 78 °F

Past Weeks' High & Low Weather Summary

 TemperatureHumidityPressure
High91 °F (Aug 30, 2:20 PM)100% (Aug 18, 6:50 AM)30.27 "Hg (Aug 18, 6:50 AM)
Low48 °F (Aug 18, 5:20 AM)20% (Aug 31, 5:20 PM)29.71 "Hg (Aug 24, 1:50 PM)
Average68 °F67%30.03 "Hg
* Reported Aug 17 4:20 PM — Sep 1 4:20 PM, Leonberg, Weather by CustomWeather, © 2015

Note: Actual official high and low records may vary slightly from our data, if they occured in-between our weather recording intervals... More about our weather records

Advertising

Leonberg weather history for previous 24 hours

 ConditionsComfort  
Time TempWeatherWind HumidityBarometerVisibility
4:20 PM
Tue, Sep 1
75 °FScattered showers. Broken clouds.18 mph57%29.89 "HgN/A
3:50 PM77 °FPartly sunny.14 mph47%29.86 "HgN/A
3:20 PM75 °FBroken clouds.7 mph57%29.86 "HgN/A
2:50 PM73 °FBroken clouds.7 mph61%29.89 "HgN/A
2:20 PM70 °FBroken clouds.7 mph69%29.89 "HgN/A
1:50 PM70 °FBroken clouds.7 mph73%29.89 "HgN/A
1:20 PM68 °FLight rain. Broken clouds.10 mph78%29.89 "HgN/A
12:50 PM68 °FLight rain. Broken clouds.14 mph73%29.89 "HgN/A
12:20 PM73 °FPassing clouds.18 mph53%29.86 "HgN/A
11:50 AM75 °FPassing clouds.14 mph50%29.86 "HgN/A
11:20 AM79 °FPassing clouds.13 mph42%29.86 "HgN/A
10:50 AM79 °FPassing clouds.6 mph42%29.83 "HgN/A
10:20 AM73 °FSunny.1 mph61%29.83 "Hg10 mi
9:50 AM72 °FSunny.1 mph65%29.83 "Hg10 mi
9:20 AM72 °FSunny.1 mph61%29.83 "Hg10 mi
8:50 AM70 °FPassing clouds.3 mph69%29.83 "HgN/A
8:20 AM68 °FSunny.2 mph69%29.83 "Hg10 mi
7:50 AM64 °FSunny.2 mph83%29.86 "Hg10 mi
7:20 AM63 °FClear.No wind83%29.86 "Hg10 mi
6:50 AM64 °FClear.2 mph73%29.86 "Hg10 mi
5:20 AM64 °FClear.5 mph78%29.86 "Hg10 mi
4:50 AM64 °FClear.2 mph73%29.89 "Hg10 mi
4:20 AM66 °FClear.2 mph68%29.89 "Hg10 mi
3:50 AM66 °FPassing clouds.3 mph68%29.89 "HgN/A
3:20 AM68 °FClear.1 mph60%29.89 "Hg10 mi
2:50 AM68 °FClear.6 mph64%29.89 "Hg10 mi
2:20 AM68 °FClear.1 mph64%29.89 "Hg10 mi
1:50 AM68 °FClear.2 mph64%29.92 "Hg10 mi
1:20 AM70 °FPassing clouds.7 mph60%29.92 "HgN/A
12:50 AM70 °FClear.1 mph57%29.89 "Hg10 mi
12:20 AM70 °FClear.5 mph57%29.89 "Hg10 mi
11:50 PM
Mon, Aug 31
73 °FClear.6 mph50%29.89 "Hg10 mi
11:20 PM73 °FClear.6 mph50%29.92 "Hg10 mi
10:50 PM73 °FPassing clouds.5 mph50%29.92 "HgN/A
10:20 PM75 °FClear.3 mph44%29.92 "Hg10 mi
9:50 PM77 °FClear.5 mph42%29.89 "Hg10 mi
9:20 PM79 °FClear.7 mph39%29.92 "Hg10 mi
8:50 PM82 °FPassing clouds.6 mph32%29.89 "HgN/A
8:20 PM82 °FSunny.12 mph32%29.89 "Hg10 mi
7:50 PM86 °FPassing clouds.5 mph31%29.89 "HgN/A
7:20 PM88 °FPassing clouds.5 mph29%29.89 "HgN/A
6:50 PM90 °FPassing clouds.6 mph27%29.89 "HgN/A
6:20 PM90 °FPassing clouds.9 mph26%29.89 "HgN/A
5:50 PM91 °FPassing clouds.8 mph24%29.89 "HgN/A
5:20 PM91 °FPassing clouds.7 mph20%29.89 "HgN/A
Weather by CustomWeather, © 2015

See weather overviewHow to use our weather pages